Regional Weather Roundup
Issued by NWS Glasgow, MT

Home | Current Version | Previous Version | Text Only | Print | Product List | Glossary On
Versions: 1 2 3 4 5 6 7 8 9 10 11 12 13 14 15 16 17 18 19 20 21 22 23 24 25 26 27 28
000
ASUS45 KGGW 010715
RWRGGW
HOURLY WEATHER ROUNDUP FOR NORTHEAST MONTANA
NATIONAL WEATHER SERVICE GLASGOW MONTANA
100 AM MDT SAT NOV 01 2014

NOTE: "FAIR" INDICATES FEW OR NO CLOUDS BELOW 12,000 FEET WITH NO
SIGNIFICANT WEATHER AND/OR OBSTRUCTIONS TO VISISBILITY.

NORTHEAST MONTANA


CITY           SKY/WX    TMP DP  RH WIND       PRES   REMARKS
GLASGOW        PTCLDY    39  31  72 E9        29.73S
PLENTYWOOD       N/A     33  21  61 E6          N/A
WOLF POINT     PTCLDY    33  27  78 NE7       29.77F
JORDAN           N/A     36  31  82 CALM      29.72F
WINNETT          N/A     39  32  76 S1          N/A
SIDNEY         CLEAR     34  18  51 SE5       29.84F
GLENDIVE       PTCLDY    39  27  60 SE6       29.80F
MALTA            N/A     40  35  83 E2          N/A
SCOBEY           N/A     35  23  62 CALM      29.76S

FORT PECK REPORTS


CITY           SKY/WX    TMP DP  RH WIND       PRES   REMARKS
THE PINES        N/A     46  35  65 S6          N/A

SOUTHEAST MONTANA


CITY           SKY/WX    TMP DP  RH WIND       PRES   REMARKS
BILLINGS       CLOUDY    50  32  50 SW9       29.75F
MILES CITY     CLOUDY    43  31  62 SE7       29.76F
BAKER          CLEAR     36  26  67 SE9       29.82F
LIVINGSTON     CLEAR     50  28  42 SW5       29.77F

CENTRAL MONTANA


CITY           SKY/WX    TMP DP  RH WIND       PRES   REMARKS
HAVRE          CLEAR     30  28  92 W5        29.72S
LEWISTOWN      MOCLDY    51  32  48 SE6       29.75S
GREAT FALLS    CLEAR     40  31  70 CALM      29.72S
CUT BANK       CLEAR     42  30  62 S6        29.71S
HELENA         CLEAR     38  32  79 NW3       29.75F
BUTTE          CLEAR     33  26  75 SE6       29.80F
BOZEMAN        NOT AVBL

WESTERN MONTANA


CITY           SKY/WX    TMP DP  RH WIND       PRES   REMARKS
MISSOULA       PTCLDY    39  37  92 NE3       29.76F
KALISPELL      NOT AVBL

NORTH DAKOTA


CITY           SKY/WX    TMP DP  RH WIND       PRES   REMARKS
WILLISTON      CLEAR     37  18  46 S9        29.84F
DICKINSON      CLEAR     34  15  46 SE18      29.85F
MINOT          PTCLDY    33  15  47 SE18G30   29.94F
BISMARCK       CLEAR     33  17  51 SE18      30.02F

SOUTHERN SASKATCHEWAN


CITY           SKY/WX    TMP DP  RH WIND       PRES   REMARKS
REGINA         CLEAR     32  21  64 SE17G25   29.78F
ESTEVAN        CLEAR     32  19  59 SE12      29.86F
SWIFT CURRENT  CLEAR     39  34  81 SW17      29.66S




USA.gov is the U.S. government's official web portal to all federal, state and local government web resources and services.